Wind_Speed
36 36 37 37 36 37 39 41 42 42 43 45 46 47 47 48 50 47 55 54 49 52 55 43 39 41 41 39 38 40 37 37 38 39 52 53 51 43 38 39 40 40 35 36 37 37 37 45 45 46 49 51 56 61
30 28 28 29 32 32 33 34 34 35 36 38 41 42 43 45 45 48 47 44 44 41 38 35 39 38 40 40 36 36 38 38 41 48 55 55 49 39 41 38 36 38 36 34 35 38 42 42 46 49 53 57 63 63
22 24 24 23 25 27 28 30 31 32 34 37 39 40 40 40 41 42 40 40 36 35 32 32 32 32 33 37 40 39 40 44 46 55 56 54 47 41 40 38 38 41 37 36 38 42 42 45 49 53 59 64 65 69
20 23 24 24 25 27 29 29 29 28 29 31 32 32 33 34 35 34 32 35 34 32 34 32 34 35 39 39 39 41 44 44 46 48 48 46 41 37 37 39 40 39 36 37 39 42 46 50 54 59 62 64 70 72
24 25 25 26 26 25 25 26 30 33 33 31 29 29 30 32 34 34 34 37 38 38 36 36 36 35 38 41 43 45 45 40 39 41 39 40 38 34 36 37 36 35 37 38 41 45 50 54 59 61 66 70 72 69
27 27 27 27 28 29 32 33 34 34 33 32 32 33 31 26 20 28 28 35 43 44 41 34 33 37 41 42 42 42 37 31 32 32 35 35 35 30 30 32 32 34 38 41 46 50 54 57 60 65 69 73 69 64
33 34 35 34 35 34 32 30 32 36 38 38 37 34 30 31 33 33 28 34 34 33 31 30 34 38 36 33 30 30 30 30 29 28 27 29 27 27 27 32 32 38 40 45 49 52 55 58 65 69 69 66 61 57
39 40 40 39 39 37 34 29 32 34 38 38 35 33 35 37 39 38 42 41 36 33 32 35 35 35 34 33 32 30 29 27 28 28 25 23 22 24 30 32 35 39 43 45 48 53 58 63 69 67 64 58 55 48
40 40 39 38 35 37 36 31 31 33 36 36 35 34 33 35 36 34 33 36 40 40 36 34 33 34 34 30 28 27 27 26 25 23 22 21 23 27 31 35 37 39 43 48 51 57 63 68 66 64 58 52 46 40
41 42 43 41 39 37 40 42 41 40 39 36 33 32 31 28 31 34 36 38 38 36 35 36 36 33 31 32 32 31 30 26 23 24 23 25 27 30 34 36 40 44 47 51 58 63 66 65 62 57 53 45 39 33
48 46 47 48 48 48 46 45 42 42 40 37 33 31 30 31 31 32 31 32 31 31 32 31 32 31 30 30 30 30 28 25 25 25 26 29 32 35 39 41 44 47 51 56 61 65 63 62 56 53 46 38 32 30
51 51 50 49 48 48 48 45 42 42 40 38 36 34 31 28 25 24 27 29 32 31 30 28 29 28 28 28 27 26 24 24 27 27 30 33 36 39 42 43 47 52 56 60 64 63 61 54 52 47 39 32 29 29
52 50 52 51 51 48 46 41 37 33 34 32 30 29 27 26 25 28 33 36 36 34 33 31 29 27 25 26 25 25 24 25 28 32 34 37 40 41 44 48 52 55 58 63 61 62 54 50 46 40 34 28 27 27
50 52 53 54 54 50 46 41 36 32 31 30 29 29 27 27 31 36 37 38 36 33 29 26 25 25 25 25 26 27 28 31 34 35 38 40 43 46 49 52 55 57 62 61 62 56 52 47 40 34 29 27 26 25
56 55 54 51 49 47 43 40 35 33 33 32 31 29 26 24 23 25 27 28 28 29 29 29 26 25 27 28 28 30 31 31 33 36 39 43 46 49 52 56 59 62 60 60 56 52 49 42 35 31 28 26 26 24
50 49 48 46 43 43 40 38 37 36 34 31 28 26 25 23 22 23 25 27 27 28 29 29 28 28 29 31 32 34 34 36 38 40 42 45 49 52 55 57 58 58 57 54 50 48 44 36 31 28 27 25 24 24
47 46 44 44 44 43 42 41 39 38 34 31 29 26 24 23 21 21 21 22 25 27 28 28 29 30 33 34 33 34 34 35 39 43 46 47 50 54 55 56 58 58 55 48 46 43 38 32 29 27 25 24 24 24
46 45 40 41 41 41 40 39 39 37 35 32 29 28 24 20 17 18 19 20 20 21 24 26 28 30 31 31 32 35 38 41 44 46 48 50 52 53 54 56 56 54 49 46 44 38 33 29 28 27 26 25 25 24
46 45 42 40 33 36 36 39 37 36 34 31 30 26 26 23 17 17 22 24 24 24 24 26 28 30 32 33 35 37 39 41 43 46 49 52 52 53 55 55 53 50 47 46 42 36 31 28 26 25 24 25 25 22
45 47 44 39 33 38 36 34 33 32 31 32 31 30 31 28 23 22 20 25 27 28 28 28 29 31 32 34 37 39 41 42 45 47 49 51 53 54 54 54 50 47 46 45 41 36 30 28 26 23 24 26 25 23
42 45 41 38 39 36 29 30 31 33 34 33 31 29 29 28 29 30 30 29 32 33 34 34 36 37 38 39 41 43 45 48 49 51 52 53 54 54 52 49 48 46 46 43 38 35 32 29 27 27 27 26 27 26
43 39 40 38 37 35 32 34 33 33 31 33 35 32 33 31 31 34 34 34 35 36 38 40 40 43 45 46 46 47 50 51 51 52 52 52 52 51 49 47 47 47 45 41 36 34 33 30 30 29 29 30 29 31
44 43 40 38 40 39 38 36 35 36 35 35 34 34 34 35 35 34 36 38 41 43 44 44 45 48 50 50 50 50 50 50 51 52 52 50 50 48 48 49 50 48 43 40 36 34 34 32 32 31 32 32 32 34
45 45 46 45 43 42 42 42 40 39 40 39 38 39 39 40 42 42 41 42 44 46 48 49 49 51 51 51 52 51 50 49 50 49 49 48 47 48 49 49 47 45 41 38 36 33 33 33 32 32 34 33 35 37
49 48 46 48 48 47 47 47 47 47 47 45 45 46 47 48 48 48 47 48 49 50 51 51 51 53 52 50 49 50 48 47 48 48 46 47 48 49 48 46 43 41 39 36 34 33 31 30 30 32 33 33 36 39
51 51 51 50 51 50 51 50 50 51 52 52 52 53 52 51 50 50 50 52 51 51 51 51 50 50 50 49 49 49 48 47 47 47 47 48 47 46 44 42 39 38 36 34 32 31 29 29 30 30 32 33 35 37
50 50 51 52 53 53 53 53 53 53 53 53 52 52 52 52 52 51 52 51 51 50 50 50 51 51 51 49 48 47 46 45 45 46 46 45 43 41 39 38 36 35 33 31 29 28 27 28 28 29 31 33 36 38
43 44 45 46 48 49 49 49 49 50 50 50 50 51 51 52 51 51 51 50 51 51 51 51 50 49 48 47 46 45 45 43 43 42 41 40 38 37 36 34 32 30 29 27 26 27 27 28 28 30 31 32 35 39
39 40 41 42 43 44 44 44 46 47 47 48 49 50 51 51 51 51 50 49 48 46 45 46 46 46 45 44 42 40 40 39 38 37 36 36 35 33 31 29 28 27 26 25 26 26 27 28 29 31 33 36 39 43
27 29 31 34 35 36 38 40 41 42 43 43 44 44 44 43 44 45 45 45 44 44 43 41 41 39 38 37 36 35 36 34 34 32 31 31 29 28 27 26 26 24 24 24 25 26 28 29 31 33 36 40 44 49
22 24 26 28 30 31 32 34 35 35 36 37 39 40 40 40 41 41 39 38 37 36 35 35 34 33 33 31 30 30 29 29 29 28 26 25 25 24 24 23 23 23 24 25 27 28 29 32 35 38 42 46 49 52
19 20 22 22 23 25 28 30 31 31 31 31 32 33 32 32 32 31 32 31 31 31 30 30 29 28 28 28 27 26 25 24 24 23 22 22 23 22 22 23 23 24 25 27 28 30 33 36 40 43 46 50 53 56
15 17 18 20 20 22 23 24 25 25 25 25 26 26 26 25 25 26 27 27 26 26 27 26 26 26 25 23 22 22 21 20 20 20 21 22 22 22 23 23 24 26 27 29 31 34 38 41 43 47 50 53 56 58
Wind_Direction
224 227 229 231 232 232 231 231 232 232 232 231 229 227 226 226 225 222 219 224 225 222 230 230 227 225 225 223 221 222 220 221 220 206 193 189 194 200 205 208 212 217 233 239 245 251 260 269 271 273 276 280 282 285
213 215 217 218 218 218 220 220 218 217 215 212 210 210 213 215 214 213 218 219 221 223 222 215 216 215 214 216 211 212 214 215 208 201 197 197 200 203 209 212 223 230 235 245 255 263 265 267 270 275 279 283 284 288
198 204 205 204 205 205 203 202 202 202 201 201 201 203 207 208 208 207 208 209 207 209 203 207 209 209 204 199 204 205 207 209 204 200 204 201 206 207 213 221 229 233 242 256 258 263 266 271 275 278 279 282 287 288
181 186 185 187 188 191 192 192 192 192 191 190 190 189 190 193 197 196 191 191 193 194 185 188 190 189 194 198 201 204 208 205 205 208 209 206 207 215 218 224 234 243 252 260 263 265 271 275 277 279 285 289 289 294
171 170 171 174 178 177 173 171 171 169 167 167 167 170 177 181 185 186 180 179 180 169 179 181 185 193 196 196 197 200 202 203 203 210 211 213 212 217 225 233 242 251 257 259 265 272 276 279 283 289 290 292 297 297
160 159 156 160 160 156 156 156 155 153 155 157 158 163 170 178 170 171 179 180 179 179 180 179 185 191 193 189 192 199 199 194 199 207 209 207 222 221 229 241 248 254 259 268 274 275 279 286 290 290 294 299 299 298
145 145 146 148 149 146 140 147 152 153 153 155 159 162 164 154 150 153 156 185 196 174 171 178 184 185 181 180 179 180 179 184 194 200 209 217 222 231 241 248 254 262 269 272 277 283 285 289 292 296 301 300 298 297
141 142 142 141 139 137 132 140 152 154 154 158 158 162 160 164 172 175 178 169 161 166 171 175 172 168 168 167 169 173 179 186 197 204 211 219 231 241 251 259 266 271 275 279 281 286 291 293 299 304 301 300 298 296
137 140 144 147 145 134 125 134 140 145 148 153 158 162 164 164 170 177 163 155 159 163 164 166 164 165 167 172 177 184 190 197 202 208 219 227 243 255 265 269 274 276 277 281 288 292 292 300 306 303 303 302 298 291
143 142 138 131 128 126 128 127 128 131 133 134 136 139 142 146 147 148 157 160 164 165 162 160 164 168 175 180 184 194 197 199 205 216 231 245 256 265 267 271 273 277 282 289 292 293 300 307 305 303 304 302 294 286
136 133 129 125 125 126 124 122 122 121 125 130 132 136 141 144 149 154 159 160 160 158 162 166 172 177 184 195 200 201 208 212 222 235 244 254 261 266 272 275 278 284 290 291 293 301 307 306 305 305 304 298 290 285
130 129 131 131 130 127 125 125 129 134 137 140 142 143 149 152 153 158 164 164 165 165 165 175 182 187 196 202 207 212 220 230 239 248 254 260 266 271 278 284 288 290 292 295 301 308 307 305 306 304 299 292 289 285
134 133 133 133 132 130 130 131 135 137 136 135 137 142 146 151 157 159 164 167 166 169 177 181 188 195 205 212 215 222 232 244 253 259 265 269 273 276 281 287 291 293 297 302 307 310 307 307 305 298 292 290 288 284
137 138 136 135 135 138 138 137 138 138 137 139 141 145 150 158 163 164 167 172 177 182 184 190 198 206 214 222 231 239 250 256 261 268 272 275 279 282 287 290 293 297 302 307 311 309 307 306 299 291 287 288 287 283
145 144 144 144 144 145 144 144 144 144 147 151 152 153 155 154 161 174 179 183 189 193 198 204 212 222 226 231 240 252 260 267 273 276 279 281 283 287 290 292 296 300 305 310 310 306 307 303 293 286 284 284 282 282
148 147 149 150 151 148 148 151 153 155 162 159 157 156 160 165 172 180 188 196 204 210 214 222 226 232 239 245 256 263 268 274 276 278 280 283 287 291 295 297 299 303 309 310 306 306 304 296 287 282 281 280 277 277
153 150 151 157 160 161 161 160 162 167 169 164 165 170 176 182 189 196 205 212 218 223 227 234 240 245 251 258 262 266 269 273 276 279 282 285 291 296 297 299 302 306 311 307 307 306 299 288 282 279 278 277 276 277
162 158 154 161 165 171 174 175 174 176 178 179 179 180 179 186 194 202 209 210 213 222 229 234 240 245 250 256 263 267 271 275 279 282 284 289 294 297 299 302 307 311 309 308 309 305 295 285 281 278 276 275 274 273
167 169 169 171 171 178 183 188 187 189 188 189 190 191 196 200 212 220 222 221 228 237 238 241 246 252 257 260 263 269 274 279 281 284 288 292 296 299 302 306 312 311 309 309 310 303 293 284 280 277 275 271 268 268
175 177 179 178 181 182 187 191 197 199 202 199 202 209 210 217 229 233 240 235 232 237 245 254 260 265 267 268 270 274 279 284 288 291 294 295 297 300 303 309 309 308 307 309 307 300 292 284 278 276 270 268 269 272
184 184 187 193 192 189 192 197 196 199 204 208 209 219 226 238 249 251 256 259 253 255 258 262 267 272 275 277 279 280 281 284 289 293 295 297 298 300 305 306 305 305 304 305 302 295 289 281 277 271 271 268 269 273
195 195 194 197 200 200 201 208 208 207 214 221 225 235 243 250 258 264 263 263 259 256 257 263 270 275 278 281 283 283 285 289 291 293 296 299 301 304 306 304 303 302 303 301 298 291 287 279 275 272 271 271 271 273
203 204 207 208 208 214 216 216 215 217 221 225 234 239 244 254 262 268 268 265 262 262 265 269 271 274 277 281 285 288 288 290 292 295 298 301 303 303 303 302 301 301 300 297 294 289 286 280 276 273 270 270 272 274
208 210 214 217 218 222 223 224 227 227 228 238 241 244 253 261 261 265 266 264 264 266 269 272 274 275 279 282 286 288 291 293 295 297 300 302 303 301 299 299 298 298 296 293 293 290 286 281 279 278 274 273 274 279
212 216 218 220 224 230 230 232 236 240 240 244 250 253 257 262 262 262 266 267 268 270 272 275 276 278 282 286 288 291 294 296 297 299 301 301 299 297 297 297 297 295 294 295 291 288 285 282 281 279 277 277 280 285
219 221 224 227 228 230 234 239 241 241 246 249 250 254 258 261 262 265 268 271 273 274 275 277 280 283 286 288 291 293 294 296 298 299 298 296 295 296 296 295 296 295 295 293 291 287 284 283 283 282 281 282 285 289
228 230 231 231 235 238 241 242 244 248 250 252 255 258 260 260 262 267 269 272 274 276 278 281 284 285 288 290 291 292 293 294 294 293 293 294 294 294 294 296 297 295 294 294 291 289 287 285 285 285 286 289 293 295
233 235 236 239 241 243 245 247 250 253 255 257 258 259 262 265 267 270 271 274 276 278 280 283 285 287 288 289 290 291 292 292 291 291 292 292 293 294 296 297 295 295 293 291 288 288 288 287 289 292 293 295 296 298
238 241 243 244 246 248 249 252 255 257 259 260 261 263 265 268 271 274 276 277 278 279 280 280 281 283 285 287 288 289 289 289 291 293 294 293 294 295 295 294 293 290 290 290 291 294 296 296 296 297 298 299 300 302
239 243 244 248 250 253 254 256 258 260 261 263 265 266 267 269 271 272 273 273 274 276 278 280 281 283 284 284 286 287 288 291 292 292 291 292 293 291 291 292 293 294 293 292 294 295 296 297 298 299 300 302 304 305
245 247 249 249 249 251 252 253 256 258 260 261 261 263 265 265 266 268 271 273 275 276 277 277 278 277 280 283 283 286 286 286 287 289 289 287 288 291 293 292 292 292 293 294 295 295 298 299 301 302 303 305 306 308
246 246 247 249 251 252 252 252 253 255 258 260 262 263 265 266 267 270 271 271 271 270 271 273 276 279 278 278 279 279 281 284 283 284 285 289 292 291 288 289 291 294 295 297 299 299 301 302 304 305 306 309 311 313
254 254 256 256 257 258 260 261 263 265 267 267 267 268 267 267 268 266 265 268 272 274 273 274 274 275 277 277 278 279 281 282 286 289 290 288 287 289 292 295 296 298 299 299 301 303 305 306 307 309 312 313 314 314
Height
9974 9984 9992 10001 10008 10015 10021 10028 10035 10043 10052 10060 10070 10081 10093 10104 10114 10127 10127 10137 10151 10159 10159 10179 10187 10197 10206 10214 10221 10228 10239 10245 10250 10259 10265 10271 10278 10285 10293 10297 10304 10310 10316 10318 10321 10324 10328 10325 10325 10325 10323 10321 10316 10313
9968 9978 9986 9992 9998 10004 10012 10019 10027 10034 10042 10050 10060 10070 10081 10092 10103 10111 10122 10132 10139 10151 10162 10173 10181 10189 10197 10205 10215 10223 10229 10238 10245 10253 10260 10267 10274 10282 10287 10294 10299 10305 10308 10310 10315 10315 10315 10316 10314 10313 10310 10307 10301 10297
9964 9972 9980 9986 9993 9999 10006 10013 10020 10027 10035 10043 10052 10062 10074 10085 10096 10105 10114 10123 10136 10147 10159 10169 10179 10186 10194 10201 10207 10216 10224 10231 10241 10248 10255 10266 10272 10278 10285 10290 10296 10298 10301 10304 10305 10304 10306 10305 10303 10300 10296 10291 10286 10280
9963 9970 9976 9983 9989 9996 10002 10010 10018 10028 10036 10043 10051 10061 10070 10080 10091 10104 10117 10125 10134 10144 10153 10162 10172 10181 10190 10197 10205 10213 10220 10230 10238 10248 10257 10265 10271 10277 10283 10287 10290 10293 10295 10295 10295 10296 10295 10293 10290 10285 10281 10277 10269 10262
9963 9970 9975 9982 9989 9997 10005 10013 10019 10024 10033 10042 10052 10061 10070 10080 10090 10101 10112 10121 10129 10142 10154 10161 10169 10179 10187 10193 10201 10209 10218 10228 10240 10248 10256 10263 10269 10274 10278 10282 10284 10286 10287 10288 10287 10287 10283 10279 10275 10271 10264 10256 10249 10241
9964 9971 9978 9986 9993 10000 10007 10014 10022 10029 10037 10045 10055 10065 10074 10084 10095 10107 10116 10121 10130 10136 10148 10157 10166 10176 10185 10192 10201 10210 10220 10231 10241 10248 10255 10261 10264 10271 10274 10276 10278 10279 10279 10279 10277 10274 10271 10267 10263 10255 10248 10238 10229 10222
9969 9976 9983 9990 9997 10005 10013 10021 10027 10035 10043 10052 10062 10070 10079 10089 10099 10108 10121 10132 10137 10141 10151 10159 10168 10177 10186 10196 10207 10215 10224 10232 10240 10247 10252 10257 10263 10266 10269 10269 10273 10272 10272 10269 10267 10264 10260 10254 10247 10240 10232 10222 10214 10207
9974 9982 9990 9997 10004 10011 10018 10028 10036 10043 10052 10061 10070 10078 10086 10092 10100 10107 10115 10121 10132 10143 10155 10165 10173 10184 10194 10202 10210 10218 10226 10233 10238 10244 10250 10254 10259 10261 10261 10264 10264 10263 10262 10260 10257 10253 10247 10239 10232 10223 10214 10207 10199 10193
9983 9992 9998 10004 10010 10017 10024 10035 10045 10053 10061 10068 10076 10084 10091 10099 10108 10115 10120 10127 10139 10152 10162 10172 10180 10188 10197 10206 10214 10221 10226 10232 10238 10243 10247 10251 10254 10254 10255 10254 10254 10253 10252 10249 10245 10239 10232 10225 10216 10206 10198 10191 10185 10180
9993 9999 10006 10013 10019 10026 10035 10043 10052 10059 10069 10079 10087 10092 10099 10107 10114 10119 10129 10139 10149 10158 10166 10174 10183 10192 10200 10206 10213 10220 10226 10231 10236 10240 10244 10246 10248 10246 10245 10247 10245 10242 10241 10237 10231 10225 10218 10210 10199 10190 10183 10177 10172 10170
10001 10008 10016 10023 10031 10037 10046 10054 10063 10071 10079 10087 10095 10103 10110 10117 10124 10132 10139 10149 10157 10165 10173 10181 10189 10196 10203 10209 10215 10221 10226 10230 10233 10237 10238 10239 10240 10237 10237 10238 10236 10232 10229 10224 10217 10211 10204 10194 10184 10176 10170 10166 10163 10161
10012 10019 10027 10034 10041 10047 10054 10063 10072 10080 10088 10096 10104 10112 10119 10127 10134 10141 10149 10157 10165 10172 10180 10188 10194 10200 10206 10211 10215 10220 10224 10226 10228 10231 10232 10231 10232 10231 10229 10228 10225 10220 10215 10210 10203 10197 10188 10180 10171 10164 10160 10157 10154 10152
10024 10031 10038 10045 10053 10061 10069 10077 10085 10092 10100 10108 10114 10121 10128 10136 10143 10148 10154 10161 10168 10176 10182 10187 10193 10200 10205 10210 10214 10217 10219 10221 10224 10224 10225 10224 10222 10223 10221 10218 10213 10208 10202 10196 10190 10183 10174 10167 10160 10154 10151 10148 10146 10144
10037 10044 10050 10057 10064 10072 10080 10087 10095 10102 10109 10115 10122 10127 10133 10139 10144 10150 10157 10165 10172 10178 10184 10190 10195 10200 10204 10207 10210 10213 10215 10216 10217 10217 10217 10215 10213 10211 10209 10206 10201 10196 10190 10183 10176 10167 10161 10155 10149 10146 10142 10139 10137 10136
10043 10051 10059 10067 10074 10082 10089 10096 10103 10111 10115 10121 10127 10133 10139 10146 10152 10159 10164 10171 10176 10181 10185 10190 10195 10198 10201 10203 10206 10208 10209 10210 10210 10209 10208 10205 10203 10201 10197 10194 10188 10183 10177 10172 10163 10155 10149 10144 10139 10136 10134 10132 10130 10128
10054 10061 10068 10075 10083 10090 10097 10104 10110 10116 10122 10127 10134 10140 10146 10152 10157 10162 10167 10172 10177 10181 10185 10189 10192 10195 10197 10199 10201 10201 10202 10202 10201 10200 10198 10195 10192 10189 10185 10181 10176 10170 10166 10159 10151 10143 10137 10133 10130 10127 10125 10124 10122 10121
10065 10069 10076 10083 10089 10096 10102 10109 10115 10120 10127 10134 10139 10145 10150 10155 10159 10164 10169 10173 10177 10180 10183 10186 10188 10189 10191 10192 10194 10194 10194 10193 10192 10190 10187 10185 10182 10178 10173 10168 10164 10159 10153 10146 10140 10132 10127 10123 10121 10118 10117 10116 10114 10113
10071 10078 10084 10090 10096 10102 10108 10113 10118 10124 10130 10136 10141 10146 10151 10156 10160 10163 10166 10170 10173 10176 10178 10180 10182 10183 10184 10185 10186 10186 10185 10184 10182 10179 10176 10173 10170 10166 10162 10157 10152 10147 10140 10134 10128 10122 10118 10114 10112 10110 10108 10107 10107 10106
10075 10081 10088 10094 10100 10106 10111 10116 10121 10126 10132 10137 10142 10146 10150 10154 10158 10161 10164 10167 10168 10170 10172 10173 10175 10176 10177 10177 10177 10176 10175 10173 10171 10168 10165 10162 10158 10154 10149 10144 10140 10134 10128 10122 10117 10113 10109 10106 10103 10102 10100 10099 10098 10098
10076 10083 10089 10096 10101 10106 10112 10117 10122 10127 10132 10136 10141 10144 10148 10151 10153 10156 10159 10161 10162 10163 10165 10166 10167 10167 10168 10168 10167 10165 10164 10161 10159 10156 10153 10150 10146 10142 10138 10133 10128 10123 10117 10112 10107 10103 10099 10096 10095 10093 10091 10089 10089 10090
10078 10084 10090 10095 10100 10106 10111 10117 10121 10125 10130 10134 10138 10140 10143 10145 10148 10151 10152 10153 10155 10157 10157 10158 10157 10158 10158 10157 10156 10154 10152 10149 10147 10144 10141 10137 10134 10129 10126 10121 10116 10111 10106 10101 10097 10093 10089 10087 10086 10083 10081 10081 10081 10080
10078 10083 10089 10094 10099 10104 10109 10114 10118 10123 10126 10130 10133 10135 10137 10139 10142 10143 10144 10145 10146 10147 10147 10147 10148 10148 10146 10145 10144 10142 10140 10137 10135 10132 10128 10125 10121 10117 10113 10107 10103 10098 10094 10089 10086 10082 10079 10078 10075 10074 10072 10071 10071 10069
10076 10082 10087 10091 10096 10101 10106 10109 10113 10116 10120 10123 10126 10128 10130 10132 10133 10133 10134 10135 10135 10136 10137 10138 10137 10135 10134 10133 10132 10130 10128 10125 10122 10119 10116 10113 10109 10105 10099 10095 10090 10085 10082 10078 10075 10072 10068 10066 10065 10064 10062 10061 10060 10058
10073 10078 10083 10088 10092 10096 10101 10104 10107 10110 10113 10115 10118 10120 10121 10122 10123 10123 10124 10124 10125 10126 10125 10125 10124 10123 10122 10121 10119 10117 10116 10113 10110 10107 10104 10100 10096 10091 10087 10082 10077 10073 10069 10066 10063 10061 10058 10056 10055 10054 10052 10051 10049 10047
10067 10071 10076 10081 10085 10089 10092 10095 10099 10101 10103 10105 10107 10109 10110 10111 10112 10112 10113 10113 10113 10113 10113 10112 10111 10110 10109 10109 10108 10106 10104 10101 10098 10094 10092 10087 10082 10077 10073 10069 10066 10061 10057 10055 10052 10050 10048 10046 10045 10044 10042 10042 10039 10035
10060 10064 10068 10072 10076 10079 10083 10085 10087 10090 10092 10094 10096 10098 10099 10100 10100 10100 10102 10101 10102 10101 10101 10100 10099 10098 10098 10097 10095 10094 10091 10088 10085 10081 10077 10072 10068 10065 10061 10057 10054 10050 10047 10044 10042 10039 10038 10037 10035 10034 10032 10031 10029 10026
10053 10057 10060 10064 10067 10070 10073 10075 10078 10080 10081 10083 10085 10086 10088 10088 10088 10089 10090 10090 10090 10090 10089 10088 10088 10087 10086 10084 10083 10081 10078 10075 10071 10067 10063 10059 10056 10053 10049 10047 10044 10040 10037 10035 10033 10031 10030 10028 10026 10024 10022 10020 10017 10013
10045 10048 10052 10055 10057 10060 10063 10066 10068 10070 10072 10073 10075 10075 10076 10077 10077 10078 10079 10079 10079 10079 10078 10077 10075 10073 10072 10070 10068 10066 10063 10059 10056 10053 10050 10047 10044 10041 10039 10037 10034 10032 10029 10027 10025 10023 10021 10019 10017 10016 10013 10011 10008 10005
10039 10043 10045 10048 10050 10052 10055 10057 10058 10060 10061 10062 10064 10064 10064 10065 10065 10065 10065 10065 10065 10065 10065 10063 10061 10059 10058 10056 10054 10052 10049 10046 10043 10041 10039 10036 10033 10032 10030 10028 10026 10024 10022 10019 10017 10016 10013 10011 10009 10007 10004 10001 9998 9993
10033 10035 10038 10039 10041 10044 10046 10046 10048 10049 10050 10051 10052 10052 10052 10053 10053 10052 10051 10051 10051 10050 10049 10048 10047 10045 10044 10042 10041 10039 10037 10035 10033 10030 10029 10026 10025 10023 10021 10019 10018 10016 10014 10012 10010 10008 10006 10004 10001 9998 9995 9991 9986 9980
10027 10028 10030 10031 10032 10034 10035 10036 10037 10038 10039 10040 10040 10039 10040 10041 10039 10038 10039 10039 10039 10038 10037 10036 10034 10033 10032 10031 10030 10028 10026 10025 10023 10021 10020 10018 10017 10015 10014 10012 10011 10009 10007 10005 10003 10001 9999 9996 9993 9989 9984 9979 9974 9967
10020 10021 10022 10023 10024 10025 10026 10026 10026 10027 10027 10028 10028 10028 10029 10029 10029 10029 10028 10027 10027 10026 10026 10025 10024 10024 10022 10021 10019 10018 10016 10016 10014 10013 10012 10011 10009 10008 10007 10005 10004 10002 10001 9999 9997 9994 9991 9988 9984 9979 9973 9966 9960 9952
10015 10015 10015 10015 10016 10016 10017 10018 10019 10019 10019 10018 10018 10018 10019 10020 10019 10018 10017 10017 10017 10017 10016 10016 10015 10014 10013 10012 10011 10010 10009 10008 10007 10006 10005 10004 10003 10002 10001 10000 9998 9996 9994 9991 9988 9985 9982 9977 9972 9966 9959 9952 9945 9937